Location: Malvern Link
(52.1333°N, 2.3000°W)
Time: 16:31:23
(UTC+00:00)

QB50P2 - Pass Details

Date: 02 July 2022
Orbit: 590 x 605 km, 97.9° (Epoch: 18 August)

Event Time Altitude Azimuth Distance (km) Brightness Sun altitude
Rises 01:49:22 0° 14° (NNE) 2,863 ? -11.9°
Reaches altitude 10° 01:51:33 10° 14° (NNE) 1,958 ? -11.8°
Maximum altitude 01:55:49 86° 286° (WNW) 613 ? -11.5°
Enters shadow 01:59:09 16° 198° (SSW) 1,581 ? -11.3°
